EW1152 Weather Reports


Display with metric or nautical units.
time (UTC)temp
F
wind
direction
speed
MPH
gust
MPH
rain 1hr
in
rain 24hr
in
rain mn
in
humidity
%
barometer
mb
20260507201628 64 349 5.0 14.0 0.00 0.19 0.15 36 1005.1
20260507201129 63 315 5.0 14.0 0.00 0.19 0.15 37 1005.3
20260507200628 63 344 5.0 16.0 0.00 0.19 0.15 35 1005.3
20260507200127 63 265 5.0 16.0 0.00 0.19 0.15 34 1005.4
20260507195627 63 327 4.0 12.0 0.00 0.19 0.15 35 1005.4
20260507195129 63 288 4.0 12.0 0.00 0.19 0.15 35 1005.2
20260507194625 63 238 4.0 13.0 0.00 0.19 0.15 36 1005.4
20260507194125 63 325 5.0 13.0 0.00 0.19 0.15 38 1005.4
20260507193624 63 335 4.0 11.0 0.00 0.20 0.15 38 1005.5
20260507193121 63 28 5.0 12.0 0.00 0.20 0.15 37 1005.5
20260507192622 63 33 7.0 16.0 0.00 0.20 0.15 37 1005.5
20260507192123 63 327 6.0 16.0 0.00 0.20 0.15 38 1005.5
20260507191621 63 315 4.0 12.0 0.00 0.20 0.15 39 1005.6
20260507191122 63 306 4.0 12.0 0.00 0.20 0.15 40 1005.6
20260507190618 63 309 4.0 9.0 0.00 0.21 0.15 38 1005.4
20260507190118 63 232 5.0 13.0 0.00 0.21 0.15 37 1005.6
20260507185618 63 277 5.0 13.0 0.00 0.21 0.15 40 1005.8
20260507185118 63 253 5.0 15.0 0.00 0.21 0.15 39 1005.7
20260507184618 63 314 5.0 15.0 0.00 0.21 0.15 40 1005.7
20260507184118 63 325 5.0 13.0 0.00 0.21 0.15 40 1005.7
20260507183839 63 248 4.0 13.0 0.00 0.21 0.15 41 1005.7
20260507183118 63 317 3.0 10.0 0.00 0.21 0.15 40 1005.8
20260507182617 62 333 4.0 10.0 0.00 0.21 0.15 41 1005.9
20260507182117 62 265 4.0 11.0 0.00 0.21 0.15 40 1006.0
20260507181621 62 348 5.0 15.0 0.00 0.21 0.15 40 1006.0
20260507181120 62 294 6.0 15.0 0.00 0.21 0.15 39 1005.9
20260507180841 62 291 5.0 14.0 0.00 0.21 0.15 42 1006.0
20260507180116 62 312 4.0 10.0 0.00 0.21 0.15 41 1006.0
20260507175617 62 254 6.0 15.0 0.01 0.21 0.15 41 1006.1
20260507175117 62 236 6.0 15.0 0.01 0.21 0.15 41 1006.2
20260507174615 61 24 3.0 15.0 0.01 0.21 0.15 42 1006.3
20260507174117 61 215 2.0 6.0 0.01 0.21 0.15 40 1006.2
20260507173615 61 280 3.0 10.0 0.01 0.21 0.15 42 1006.1
20260507173116 61 355 3.0 10.0 0.01 0.21 0.15 41 1006.1
20260507172606 61 236 4.0 15.0 0.01 0.21 0.15 40 1006.3
20260507172107 61 213 6.0 15.0 0.01 0.21 0.15 41 1006.2
20260507171603 61 273 6.0 14.0 0.01 0.21 0.15 41 1006.3
20260507171102 60 323 5.0 14.0 0.01 0.21 0.15 41 1006.5
20260507170601 60 265 6.0 14.0 0.01 0.21 0.15 41 1006.5
20260507165601 61 240 6.0 16.0 0.00 0.20 0.15 41 1006.7
20260507165100 61 327 5.0 14.0 0.00 0.20 0.14 42 1006.8
20260507164559 61 306 5.0 14.0 0.00 0.20 0.14 44 1006.7
20260507164059 61 5 6.0 14.0 0.00 0.20 0.14 45 1006.8
20260507163559 61 254 6.0 17.0 0.00 0.20 0.14 44 1006.9
20260507163058 61 344 6.0 17.0 0.00 0.20 0.14 44 1006.9
20260507162556 62 5 5.0 14.0 0.00 0.20 0.14 45 1006.8
20260507162056 61 344 4.0 14.0 0.00 0.20 0.14 45 1006.9
20260507161556 61 355 4.0 13.0 0.00 0.20 0.14 44 1007.1
20260507161054 61 327 5.0 12.0 0.00 0.20 0.14 46 1007.0
20260507160545 60 296 5.0 11.0 0.00 0.20 0.14 46 1007.1
20260507160044 60 265 5.0 12.0 0.00 0.20 0.14 47 1007.1
20260507155544 61 317 5.0 12.0 0.00 0.20 0.14 47 1007.2
20260507155305 61 136 6.0 15.0 0.00 0.20 0.14 48 1007.1
20260507154532 61 314 6.0 15.0 0.00 0.20 0.14 49 1007.2
20260507154026 60 241 5.0 12.0 0.00 0.20 0.14 50 1007.2
20260507153519 61 252 4.0 12.0 0.00 0.20 0.14 51 1007.2
20260507153014 61 270 4.0 12.0 0.00 0.20 0.14 51 1007.2
20260507152508 61 248 4.0 9.0 0.00 0.20 0.14 51 1007.3
20260507152003 60 321 4.0 7.0 0.00 0.20 0.14 51 1007.4
20260507151456 60 236 4.0 11.0 0.00 0.20 0.14 51 1007.4
20260507151212 60 264 4.0 11.0 0.00 0.20 0.14 53 1007.4
20260507150937 60 272 4.0 12.0 0.00 0.20 0.14 53 1007.4
20260507145950 59 355 4.0 12.0 0.00 0.20 0.14 54 1007.4
20260507145439 59 250 4.0 10.0 0.00 0.20 0.14 55 1007.6
20260507144941 58 62 4.0 10.0 0.00 0.20 0.14 55 1007.4
20260507144706 58 341 5.0 12.0 0.00 0.20 0.14 55 1007.6
20260507143941 58 306 4.0 12.0 0.00 0.20 0.14 56 1007.7
20260507143440 58 323 4.0 10.0 0.00 0.20 0.14 56 1007.6
20260507143156 58 317 4.0 10.0 0.00 0.20 0.14 56 1007.6
20260507142655 57 331 4.0 10.0 0.00 0.20 0.14 57 1007.7
20260507142201 56 313 3.0 6.0 0.00 0.20 0.14 57 1007.7
20260507141436 56 221 3.0 9.0 0.00 0.20 0.14 57 1007.7
20260507140929 56 302 3.0 9.0 0.00 0.20 0.14 57 1007.8
20260507140648 56 298 3.0 10.0 0.00 0.20 0.14 58 1007.8
20260507140146 55 16 4.0 10.0 0.00 0.20 0.14 58 1007.8
20260507135415 55 300 3.0 9.0 0.00 0.20 0.14 59 1007.8
20260507134916 54 227 3.0 9.0 0.00 0.20 0.14 59 1007.7
20260507134413 54 312 3.0 9.0 0.00 0.20 0.14 59 1007.7
20260507134406 53 300 3.0 9.0 0.00 0.20 0.14 60 1007.6
20260507133413 53 300 2.0 9.0 0.00 0.20 0.14 62 1007.7
20260507132913 53 231 3.0 9.0 0.00 0.20 0.14 61 1007.8
20260507132633 52 261 3.0 9.0 0.00 0.20 0.14 61 1007.9
20260507131914 52 346 3.0 7.0 0.00 0.20 0.14 61 1007.9
20260507131408 52 273 3.0 8.0 0.00 0.20 0.14 62 1007.9
20260507130902 51 238 3.0 8.0 0.00 0.20 0.14 63 1007.8
20260507130612 51 323 3.0 10.0 0.00 0.20 0.14 63 1007.9
20260507125849 51 346 4.0 10.0 0.00 0.20 0.14 61 1007.9
20260507125344 51 355 3.0 10.0 0.00 0.20 0.14 62 1008.0
20260507125101 51 323 2.0 5.0 0.00 0.20 0.14 63 1008.0
20260507124332 51 333 2.0 6.0 0.00 0.20 0.14 62 1008.0
20260507123828 50 298 2.0 6.0 0.00 0.20 0.14 62 1007.8
20260507123320 50 302 2.0 5.0 0.00 0.20 0.14 62 1007.8
20260507122816 50 277 2.0 5.0 0.00 0.20 0.14 63 1007.9
20260507122314 50 296 1.0 4.0 0.00 0.20 0.14 63 1008.0
20260507121813 50 339 0.0 3.0 0.00 0.20 0.14 62 1008.0
20260507121314 50 262 0.0 2.0 0.00 0.20 0.14 62 1008.0
20260507120811 50 265 1.0 3.0 0.00 0.20 0.14 62 1008.1
20260507120310 50 263 1.0 3.0 0.00 0.20 0.14 62 1007.8
20260507115810 50 274 0.0 3.0 0.00 0.20 0.14 61 1007.6
20260507115307 50 257 1.0 4.0 0.00 0.20 0.14 61 1007.7
20260507114800 50 279 1.0 4.0 0.00 0.20 0.14 61 1007.6
20260507114258 50 219 0.0 4.0 0.00 0.20 0.14 61 1007.7
20260507113801 50 246 0.0 3.0 0.00 0.20 0.14 61 1007.6
20260507113240 50 246 0.0 3.0 0.00 0.20 0.14 61 1007.7
20260507112736 50 253 0.0 1.0 0.00 0.20 0.14 61 1007.7
20260507112226 50 250 0.0 1.0 0.01 0.20 0.14 60 1007.5
20260507111718 50 250 0.0 2.0 0.01 0.20 0.14 59 1007.6
20260507111211 49 223 0.0 2.0 0.01 0.20 0.14 59 1007.4
20260507110709 49 284 0.0 1.0 0.01 0.20 0.14 59 1007.3
20260507110424 49 257 0.0 0.0 0.02 0.20 0.14 58 1007.4
20260507105651 49 257 0.0 0.0 0.02 0.20 0.14 58 1007.3
20260507105145 49 257 0.0 1.0 0.02 0.20 0.14 58 1007.3
20260507104639 49 265 0.0 1.0 0.03 0.20 0.14 57 1007.3
20260507104131 49 265 0.0 0.0 0.03 0.20 0.14 56 1006.8
20260507103843 49 265 0.0 0.0 0.03 0.20 0.14 56 1007.1
20260507103347 49 265 0.0 0.0 0.03 0.20 0.14 57 1007.1
20260507102621 49 265 0.0 0.0 0.04 0.20 0.14 57 1006.9
20260507102116 49 265 0.0 0.0 0.03 0.19 0.13 57 1007.2
20260507101610 49 265 0.0 0.0 0.03 0.19 0.13 57 1007.3
20260507101107 49 265 0.0 0.0 0.03 0.19 0.13 57 1007.4
20260507100608 49 265 0.0 0.0 0.03 0.19 0.13 57 1007.3
20260507100052 49 265 0.0 1.0 0.02 0.18 0.12 57 1007.1
20260507095545 49 303 0.0 3.0 0.03 0.18 0.12 57 1007.1
20260507095030 49 294 0.0 5.0 0.03 0.18 0.12 57 1007.0
20260507094523 49 296 0.0 5.0 0.03 0.17 0.11 57 1007.2
20260507094018 49 261 0.0 2.0 0.03 0.17 0.11 57 1007.1
20260507093513 49 288 1.0 5.0 0.03 0.17 0.11 57 1006.6
20260507093005 49 355 1.0 5.0 0.03 0.16 0.11 57 1006.5
20260507091956 49 269 2.0 5.0 0.03 0.16 0.10 57 1006.8
20260507091722 49 311 2.0 5.0 0.05 0.16 0.10 57 1006.6
20260507090951 49 257 2.0 10.0 0.05 0.16 0.10 57 1006.8
20260507090437 49 330 2.0 10.0 0.05 0.16 0.10 57 1006.6
20260507085931 49 334 2.0 6.0 0.06 0.16 0.10 57 1006.6
20260507085657 50 300 2.0 6.0 0.06 0.15 0.09 57 1006.6
20260507084917 50 338 2.0 5.0 0.06 0.15 0.09 57 1006.5
20260507084415 50 299 1.0 6.0 0.05 0.14 0.08 57 1006.7
20260507083905 50 330 2.0 6.0 0.05 0.14 0.08 57 1006.8
20260507083400 50 299 2.0 6.0 0.05 0.13 0.08 57 1007.0
20260507082853 50 311 1.0 4.0 0.06 0.13 0.07 57 1006.7
20260507082349 51 324 2.0 4.0 0.06 0.13 0.07 57 1006.7
20260507081851 51 283 2.0 5.0 0.06 0.12 0.07 57 1006.8
20260507081350 51 292 2.0 7.0 0.05 0.11 0.05 57 1006.7
20260507080850 51 279 2.0 7.0 0.05 0.11 0.05 57 1006.7
20260507080351 51 300 2.0 6.0 0.05 0.11 0.05 57 1006.5
20260507075850 52 5 1.0 5.0 0.04 0.10 0.04 57 1006.6
20260507075349 52 272 1.0 7.0 0.03 0.09 0.03 57 1007.1
20260507075109 52 268 2.0 7.0 0.03 0.09 0.03 57 1007.0
20260507074347 52 304 2.0 7.0 0.03 0.09 0.03 57 1006.9
20260507073841 53 255 1.0 5.0 0.03 0.09 0.03 57 1006.9
20260507073342 53 175 2.0 9.0 0.01 0.07 0.02 57 1006.3
20260507072829 53 259 4.0 11.0 0.01 0.07 0.01 57 1006.9
20260507072328 53 231 4.0 11.0 0.01 0.07 0.01 57 1006.7
20260507072052 53 302 3.0 10.0 0.00 0.06 0.00 57 1006.1
20260507071329 54 282 2.0 9.0 0.00 0.06 0.00 57 1006.0
20260507071304 54 274 2.0 6.0 0.00 0.06 0.00 58 1005.8
20260507070319 54 260 2.0 8.0 0.00 0.06 0.00 58 1005.6
20260507065820 54 338 4.0 13.0 0.00 0.06 0.00 58 1005.4
20260507065320 54 311 4.0 13.0 0.00 0.06 0.00 58 1005.6
20260507064816 55 275 3.0 10.0 0.00 0.06 0.00 59 1005.8
20260507064315 55 274 3.0 12.0 0.00 0.06 0.00 59 1005.7
20260507063815 55 291 3.0 12.0 0.00 0.06 0.00 59 1005.7
20260507063317 56 299 2.0 6.0 0.00 0.06 0.00 59 1005.9
20260507062814 56 233 2.0 9.0 0.00 0.06 0.00 59 1005.9
20260507062314 56 262 3.0 9.0 0.00 0.06 0.00 59 1005.9
20260507061817 56 342 2.0 9.0 0.00 0.06 0.00 59 1005.8
20260507061315 56 311 1.0 4.0 0.00 0.06 0.00 59 1005.9
20260507060813 56 298 1.0 4.0 0.00 0.06 0.00 59 1005.8
20260507060315 56 316 1.0 5.0 0.00 0.06 0.00 59 1005.8
20260507060300 56 241 2.0 6.0 0.00 0.06 0.00 59 1005.8
20260507055305 57 311 3.0 6.0 0.00 0.06 0.00 59 1005.9
20260507055025 57 274 2.0 6.0 0.00 0.06 0.00 59 1006.0
20260507054257 57 319 3.0 10.0 0.00 0.06 0.00 60 1006.1
20260507053757 57 326 3.0 10.0 0.00 0.06 0.00 60 1006.0
20260507053250 57 327 2.0 9.0 0.00 0.06 0.00 60 1006.1
20260507052749 58 315 2.0 6.0 0.00 0.06 0.00 60 1006.0
20260507052249 58 327 1.0 6.0 0.00 0.06 0.00 60 1006.3
20260507051751 58 341 0.0 3.0 0.00 0.06 0.00 60 1006.2
20260507051247 58 284 1.0 4.0 0.00 0.06 0.00 60 1006.2
20260507050704 58 305 1.0 4.0 0.00 0.06 0.00 60 1006.3
20260507050143 58 327 0.0 3.0 0.00 0.06 0.00 61 1006.0
20260507045643 58 269 1.0 4.0 0.00 0.06 0.00 61 1006.1
20260507045122 59 326 1.0 4.0 0.00 0.06 0.00 61 1006.0
20260507044616 59 290 1.0 5.0 0.01 0.06 0.00 61 1006.2
20260507044343 59 263 1.0 5.0 0.01 0.06 0.00 61 1006.0
20260507043615 59 301 0.0 3.0 0.01 0.06 0.00 61 1005.9
20260507043118 59 310 0.0 2.0 0.01 0.06 0.00 61 1005.9
20260507042837 59 269 0.0 1.0 0.01 0.06 0.00 61 1006.0
20260507042112 59 269 1.0 4.0 0.01 0.06 0.00 61 1005.9
20260507041610 59 238 1.0 4.0 0.01 0.06 0.00 61 1005.9
20260507041044 59 211 0.0 3.0 0.01 0.06 0.00 61 1005.8
20260507040543 59 225 0.0 3.0 0.01 0.06 0.00 61 1005.9
20260507040023 60 198 0.0 2.0 0.01 0.06 0.00 61 1005.9
20260507035516 60 280 1.0 4.0 0.01 0.06 0.06 61 1006.0
20260507035016 60 280 2.0 5.0 0.01 0.06 0.06 61 1005.9
20260507034732 59 230 1.0 5.0 0.00 0.05 0.05 61 1006.1
20260507033958 60 284 2.0 6.0 0.00 0.05 0.05 61 1006.0
20260507033710 59 129 2.0 8.0 0.00 0.05 0.05 61 1006.0
20260507033209 59 205 2.0 9.0 0.00 0.05 0.05 61 1005.9
20260507032439 59 250 2.0 10.0 0.00 0.05 0.05 61 1006.0
20260507032159 59 227 2.0 10.0 0.00 0.05 0.05 61 1005.9
20260507031429 59 209 1.0 10.0 0.00 0.05 0.05 61 1005.8
20260507030922 59 241 1.0 10.0 0.00 0.05 0.05 61 1005.7
20260507030417 59 159 1.0 7.0 0.00 0.05 0.05 61 1005.7
20260507025919 59 221 1.0 6.0 0.00 0.05 0.05 61 1005.8
20260507025417 59 215 1.0 6.0 0.00 0.05 0.05 61 1005.7
20260507024911 59 244 2.0 8.0 0.00 0.05 0.05 61 1005.7
20260507024354 59 165 3.0 14.0 0.00 0.05 0.05 61 1005.7
20260507023848 59 212 1.0 9.0 0.00 0.05 0.05 61 1005.7
20260507023342 59 170 1.0 4.0 0.00 0.05 0.05 61 1005.6
20260507022836 59 209 2.0 10.0 0.00 0.05 0.05 61 1005.7
20260507022330 59 355 2.0 10.0 0.00 0.05 0.05 61 1005.7
20260507021826 59 179 2.0 5.0 0.00 0.05 0.05 61 1005.7
20260507021315 59 220 1.0 5.0 0.00 0.05 0.05 61 1005.7
20260507020817 59 190 1.0 5.0 0.00 0.05 0.05 61 1005.7
20260507020314 59 164 2.0 7.0 0.00 0.05 0.05 61 1005.7
20260507015814 59 246 1.0 7.0 0.00 0.05 0.05 62 1005.9
20260507015259 59 161 1.0 6.0 0.00 0.05 0.05 62 1005.7
20260507014759 59 286 1.0 5.0 0.00 0.05 0.05 62 1005.6
20260507014237 59 248 1.0 5.0 0.00 0.05 0.05 62 1005.8
20260507013732 59 244 1.0 3.0 0.00 0.05 0.05 62 1005.8
20260507013226 59 246 1.0 5.0 0.00 0.05 0.05 62 1005.8
20260507012720 59 196 2.0 7.0 0.00 0.05 0.05 62 1005.6
20260507012215 58 204 1.0 7.0 0.00 0.05 0.05 62 1005.9
20260507011716 59 173 1.0 5.0 0.00 0.05 0.05 62 1005.9
20260507011214 58 212 2.0 10.0 0.00 0.05 0.05 62 1006.0
20260507010930 58 194 2.0 10.0 0.00 0.05 0.05 62 1006.0
20260507010209 58 223 1.0 7.0 0.00 0.05 0.05 62 1006.0
20260507005704 58 211 1.0 9.0 0.00 0.05 0.05 62 1006.1
20260507005204 58 177 1.0 9.0 0.00 0.05 0.05 62 1006.1
20260507004656 58 195 1.0 10.0 0.00 0.05 0.05 62 1006.1
20260507004154 58 134 1.0 10.0 0.00 0.05 0.05 62 1006.0
20260507003654 58 210 1.0 6.0 0.00 0.05 0.05 62 1006.1
20260507003152 58 196 1.0 5.0 0.00 0.05 0.05 62 1006.1
20260507002652 58 144 2.0 7.0 0.00 0.05 0.05 62 1006.1
20260507002152 58 219 3.0 9.0 0.00 0.05 0.05 62 1006.0
20260507001651 58 246 3.0 10.0 0.00 0.05 0.05 62 1005.8
20260507001150 58 238 2.0 10.0 0.00 0.05 0.05 63 1005.9
20260507000650 58 237 2.0 9.0 0.00 0.05 0.05 63 1005.9
20260507000147 58 78 1.0 9.0 0.00 0.05 0.05 63 1006.0
20260506235648 58 238 1.0 7.0 0.00 0.05 0.05 63 1005.9
20260506235410 58 133 2.0 9.0 0.00 0.05 0.05 63 1005.9
20260506234644 58 138 1.0 9.0 0.00 0.05 0.05 63 1005.7
20260506234402 58 243 2.0 9.0 0.00 0.05 0.05 63 1005.9
20260506233638 58 202 2.0 9.0 0.00 0.05 0.05 63 1005.8
20260506233137 58 314 2.0 10.0 0.00 0.05 0.05 63 1005.7
20260506232635 59 194 2.0 10.0 0.00 0.05 0.05 63 1005.6
20260506232127 59 173 1.0 7.0 0.00 0.05 0.05 63 1005.7
20260506231847 59 166 2.0 6.0 0.00 0.05 0.05 64 1005.8
20260506231126 59 171 1.0 7.0 0.00 0.05 0.05 64 1005.7
20260506230628 59 279 2.0 7.0 0.00 0.05 0.05 64 1005.9
20260506230127 59 194 2.0 7.0 0.00 0.05 0.05 64 1005.9
20260506225628 59 128 2.0 7.0 0.00 0.05 0.05 64 1005.9
20260506225116 59 200 2.0 6.0 0.00 0.05 0.05 64 1006.0
20260506224607 59 195 1.0 7.0 0.00 0.05 0.05 65 1006.0
20260506224108 59 117 2.0 7.0 0.01 0.05 0.05 65 1005.9
20260506223555 59 205 2.0 9.0 0.01 0.05 0.05 65 1005.8
20260506223047 59 178 2.0 9.0 0.01 0.05 0.05 66 1005.8
20260506222541 59 200 2.0 7.0 0.01 0.05 0.05 66 1005.8
20260506222035 59 185 1.0 9.0 0.01 0.05 0.05 66 1005.8
20260506221533 60 229 1.0 9.0 0.01 0.05 0.05 67 1005.9
20260506221514 60 117 2.0 9.0 0.02 0.05 0.05 67 1006.0
20260506220741 60 263 2.0 10.0 0.02 0.05 0.05 67 1006.1
20260506220011 60 152 3.0 10.0 0.02 0.05 0.05 67 1006.3
20260506215512 60 204 2.0 10.0 0.02 0.05 0.05 67 1006.3
20260506215011 60 228 2.0 5.0 0.02 0.05 0.05 67 1006.3
20260506214453 60 90 2.0 9.0 0.02 0.05 0.05 67 1006.3
20260506213947 60 195 1.0 9.0 0.01 0.04 0.04 67 1006.2
20260506213703 60 203 2.0 9.0 0.01 0.04 0.04 66 1006.3
20260506212939 60 137 2.0 10.0 0.02 0.04 0.04 66 1006.4
20260506212425 60 181 2.0 10.0 0.02 0.04 0.04 66 1006.5
20260506211919 60 355 2.0 9.0 0.02 0.04 0.04 66 1006.5
20260506211412 60 194 2.0 10.0 0.02 0.04 0.04 66 1006.5
20260506210910 60 210 2.0 10.0 0.01 0.03 0.03 66 1006.7
20260506210400 60 267 2.0 6.0 0.01 0.03 0.03 66 1006.5
20260506205855 61 224 1.0 6.0 0.01 0.03 0.03 65 1006.5
20260506205352 61 140 1.0 5.0 0.01 0.03 0.03 66 1006.6
20260506204849 61 273 1.0 7.0 0.01 0.03 0.03 65 1006.6
20260506204337 61 268 2.0 9.0 0.01 0.03 0.03 64 1006.7
20260506204054 61 261 1.0 10.0 0.02 0.03 0.03 65 1006.8
20260506203325 61 188 2.0 10.0 0.02 0.03 0.03 64 1006.8
20260506202819 61 189 2.0 6.0 0.01 0.02 0.02 64 1006.8
20260506202314 61 15 2.0 7.0 0.01 0.02 0.02 64 1006.9
20260506202033 61 215 1.0 7.0 0.01 0.02 0.02 64 1006.9